This is the latest recevied weather packets stored in our database for station/object W5TUX. If no packets are shown the sender has not sent any weather packets the latest 1 day(s).
| Time | Temp. | Humidity | Pressure | Rain* | Wind** | Luminosity | Snow |
|---|---|---|---|---|---|---|---|
| 1836274719 | 26.11° C | 74% | 1021.6 hPa | 0 mm | 0 m/s | 0 W/m² | - |
| 1836274572 | 25.56° C | 75% | 1021.6 hPa | 0 mm | 0 m/s | 0 W/m² | - |
| 1836274418 | 26.11° C | 74% | 1021.5 hPa | 0 mm | 0 m/s | 0 W/m² | - |
| 1836274271 | 26.11° C | 74% | 1021.5 hPa | 0 mm | 0 m/s | 0 W/m² | - |
| 1836274116 | 26.11° C | 74% | 1021.4 hPa | 0 mm | 0 m/s | 0 W/m² | - |
| 1778045028 | 15.56° C | 77% | 1015 hPa | 0 mm | 0.89 m/s, 306° | 0 W/m² | - |
| 1778044726 | 15.56° C | 77% | 1015.1 hPa | 0 mm | 0 m/s | 0 W/m² | - |
| 1778044422 | 15.56° C | 77% | 1015 hPa | 0 mm | 0.45 m/s, 295° | 0 W/m² | - |
| 1778044119 | 16.11° C | 77% | 1015 hPa | 0 mm | 0.45 m/s, 211° | 0 W/m² | - |
| 1778043816 | 16.11° C | 78% | 1014.9 hPa | 0 mm | 0.45 m/s, 22° | 0 W/m² | - |
| 1778043513 | 16.11° C | 78% | 1014.9 hPa | 0 mm | 0.89 m/s, 255° | 0 W/m² | - |
| 1778043210 | 16.11° C | 79% | 1014.7 hPa | 0 mm | 0 m/s | 0 W/m² | - |
| 1778042907 | 16.11° C | 79% | 1014.8 hPa | 0 mm | 0.89 m/s, 309° | 0 W/m² | - |
| 1778042605 | 16.11° C | 79% | 1014.9 hPa | 0 mm | 0.45 m/s, 274° | 0 W/m² | - |
| 1778042302 | 16.67° C | 78% | 1014.8 hPa | 0 mm | 0.89 m/s, 317° | 0 W/m² | - |
| 1778041999 | 16.67° C | 78% | 1014.8 hPa | 0 mm | 0.45 m/s, 99° | 0 W/m² | - |
| 1778041697 | 16.67° C | 79% | 1014.8 hPa | 0 mm | 0.45 m/s, 288° | 0 W/m² | - |
| 1778041396 | 16.67° C | 79% | 1014.6 hPa | 0 mm | 0 m/s | 0 W/m² | - |
| 1778041095 | 16.67° C | 79% | 1014.9 hPa | 0 mm | 1.34 m/s, 332° | 0 W/m² | - |
| 1778040791 | 16.67° C | 78% | 1014.6 hPa | 0 mm | 0.89 m/s, 3° | 0 W/m² | - |
| 1778040488 | 17.22° C | 78% | 1014.7 hPa | 0 mm | 0.89 m/s, 336° | 0 W/m² | - |
| 1778040185 | 16.67° C | 78% | 1014.4 hPa | 0 mm | 1.34 m/s, 304° | 0 W/m² | - |
| 1778039882 | 17.22° C | 79% | 1014.2 hPa | 0 mm | 0 m/s | 0 W/m² | - |
| 1778039579 | 17.22° C | 79% | 1014.4 hPa | 0 mm | 0 m/s | 0 W/m² | - |
| 1778039276 | 17.22° C | 78% | 1014.3 hPa | 0 mm | 0.89 m/s, 340° | 0 W/m² | - |
* Rain latest hour (hover to see other rain measurements)
** Current wind speed in m/s (hover to see current wind gust speed)